Stations météo

réclame
Mon MeteoGroup
Koblenz/Falkensteinkaserne, Allemagne (10516): Température de l'air & dewpoint: 17.04.2018 04:00:00 - 23.04.2018 04:00:00 (CEST)Koblenz/Falkensteinkaserne, Allemagne (10516): Vitesse du vent: 17.04.2018 04:00:00 - 23.04.2018 04:00:00 (CEST)Koblenz/Falkensteinkaserne, Allemagne (10516): Direction du vent: 17.04.2018 04:00:00 - 23.04.2018 04:00:00 (CEST)Koblenz/Falkensteinkaserne, Allemagne (10516): reduced air pressure: 17.04.2018 04:00:00 - 23.04.2018 04:00:00 (CEST)Koblenz/Falkensteinkaserne, Allemagne (10516): visibility: 17.04.2018 04:00:00 - 23.04.2018 04:00:00 (CEST)
Date & Time tt [°C] td [°C] ff [km/h] ff [knt] dd ppp [hPa] vv [km]
23.04.2018 04:00:00 - - - - - - -
23.04.2018 03:00:00 17,2 11,6 7 4 N 1012,9 -
23.04.2018 02:00:00 17,0 11,4 4 2 N 1012,8 -
23.04.2018 01:00:00 17,4 10,9 4 2 E 1012,9 -
23.04.2018 00:00:00 18,2 11,0 4 2 N 1012,8 -
22.04.2018 23:00:00 19,7 10,3 4 2 N 1012,6 -
22.04.2018 22:00:00 21,5 9,1 7 4 SSW 1011,9 -
22.04.2018 21:00:00 22,9 8,3 7 4 SW 1011,4 -
22.04.2018 20:00:00 24,3 8,9 11 6 WSW 1011,0 -
22.04.2018 19:00:00 25,4 10,2 7 4 WSW 1010,5 -
22.04.2018 18:00:00 26,7 8,4 14 8 WSW 1010,3 -
22.04.2018 17:00:00 27,5 8,1 14 8 WSW 1010,3 -
22.04.2018 16:00:00 27,6 8,5 11 6 SW 1010,6 -
22.04.2018 15:00:00 27,1 9,8 7 4 SSW 1011,4 -
22.04.2018 14:00:00 27,1 10,9 7 4 SW 1012,0 -
22.04.2018 13:00:00 25,6 11,8 4 2 N 1013,0 -
22.04.2018 12:00:00 23,2 11,7 7 4 N 1013,9 -
22.04.2018 11:00:00 21,2 11,4 4 2 SW 1014,7 -
22.04.2018 10:00:00 18,1 11,2 7 4 N 1014,9 -
22.04.2018 09:00:00 15,2 10,5 4 2 N 1015,3 -
22.04.2018 08:00:00 13,4 10,5 4 2 N 1015,8 -
22.04.2018 07:00:00 12,4 10,8 7 4 N 1015,7 -
22.04.2018 06:00:00 12,1 10,6 4 2 N 1015,9 -
22.04.2018 05:00:00 12,9 10,8 4 2 N 1016,2 -
22.04.2018 04:00:00 14,5 10,6 4 2 SSW 1016,4 -
22.04.2018 03:00:00 15,6 10,9 7 4 N 1016,7 -
22.04.2018 02:00:00 15,1 10,6 4 2 N 1017,3 -
22.04.2018 01:00:00 16,1 10,7 7 4 N 1017,8 -
22.04.2018 00:00:00 16,4 10,5 4 2 N 1017,8 -
21.04.2018 23:00:00 17,6 10,7 7 4 N 1017,8 -
21.04.2018 22:00:00 18,8 10,0 4 2 N 1017,7 -
21.04.2018 21:00:00 21,9 9,1 4 2 NNW 1017,6 -
21.04.2018 20:00:00 23,7 9,4 7 4 NNW 1017,2 -
21.04.2018 19:00:00 24,9 8,7 11 6 NNW 1017,5 -
21.04.2018 18:00:00 25,4 8,2 11 6 NNW 1017,7 -
21.04.2018 17:00:00 25,7 8,1 11 6 WNW 1018,2 -
21.04.2018 16:00:00 25,9 7,7 7 4 NNW 1018,8 -
21.04.2018 15:00:00 25,5 7,9 7 4 WNW 1019,6 -
21.04.2018 14:00:00 24,3 8,3 7 4 NW 1020,2 -
21.04.2018 13:00:00 23,2 10,6 7 4 NW 1020,8 -
21.04.2018 12:00:00 21,5 11,7 7 4 WNW 1021,5 -
21.04.2018 11:00:00 19,3 11,1 4 2 NW 1021,7 -
21.04.2018 10:00:00 17,3 9,5 4 2 SSW 1021,9 -
21.04.2018 09:00:00 15,1 10,2 4 2 N 1022,0 -
21.04.2018 08:00:00 12,9 9,9 4 2 N 1021,9 -
21.04.2018 07:00:00 11,6 9,9 4 2 SW 1021,4 -
21.04.2018 06:00:00 11,9 9,9 4 2 SSW 1021,0 -
21.04.2018 05:00:00 12,3 10,0 4 2 SW 1021,2 -
21.04.2018 04:00:00 12,8 9,6 4 2 N 1021,3 -
21.04.2018 03:00:00 13,7 10,0 4 2 N 1021,2 -
21.04.2018 02:00:00 14,4 9,7 4 2 SSW 1021,4 -
21.04.2018 01:00:00 15,1 9,9 4 2 SW 1021,5 -
21.04.2018 00:00:00 16,2 10,1 4 2 N 1021,0 -
20.04.2018 23:00:00 16,9 9,7 4 2 N 1021,1 -
20.04.2018 22:00:00 19,4 9,4 4 2 N 1021,0 -
20.04.2018 21:00:00 21,7 7,6 4 2 N 1020,5 40
20.04.2018 20:00:00 25,6 7,1 7 4 NNW 1020,0 40
20.04.2018 19:00:00 27,3 4,8 7 4 NNW 1020,1 40
20.04.2018 18:00:00 27,4 4,6 7 4 WNW 1020,5 40
20.04.2018 17:00:00 27,4 1,8 7 4 WNW 1021,0 40
20.04.2018 16:00:00 28,0 2,0 7 4 N 1021,5 40
20.04.2018 15:00:00 26,8 3,1 7 4 WNW 1022,2 40
20.04.2018 14:00:00 26,1 1,1 7 4 N 1022,8 40
20.04.2018 13:00:00 24,4 8,8 4 2 NNW 1023,6 40
20.04.2018 12:00:00 21,2 9,4 7 4 N 1024,3 40
20.04.2018 11:00:00 18,3 8,2 4 2 N 1024,8 40
20.04.2018 10:00:00 15,6 7,0 4 2 SSW 1025,0 40
20.04.2018 09:00:00 12,3 7,1 4 2 N 1025,3 40
20.04.2018 08:00:00 11,0 7,7 4 2 N 1025,5 40
20.04.2018 07:00:00 9,0 7,5 4 2 SW 1025,4 40
20.04.2018 06:00:00 9,7 7,4 4 2 N 1025,3 -
20.04.2018 05:00:00 10,4 8,0 4 2 SSW 1025,4 -
20.04.2018 04:00:00 11,1 8,2 4 2 N 1025,6 -
20.04.2018 03:00:00 11,9 8,4 4 2 N 1025,6 -
20.04.2018 02:00:00 - - - - - - -
20.04.2018 01:00:00 14,3 7,8 4 2 N 1025,8 -
20.04.2018 00:00:00 16,5 7,5 7 4 S 1025,7 -
19.04.2018 23:00:00 17,5 7,4 4 2 S 1025,6 -
19.04.2018 22:00:00 20,3 6,7 7 4 SSW 1025,5 -
19.04.2018 21:00:00 22,4 4,3 7 4 SE 1024,9 40
19.04.2018 20:00:00 26,6 1,1 7 4 SSE 1024,4 40
19.04.2018 19:00:00 27,4 2,2 11 6 SE 1024,5 40
19.04.2018 18:00:00 28,0 2,5 11 6 ESE 1024,8 40
19.04.2018 17:00:00 27,9 3,6 11 6 E 1025,0 40
19.04.2018 16:00:00 27,4 2,9 11 6 E 1025,8 40
19.04.2018 15:00:00 27,2 2,7 11 6 E 1026,4 40
19.04.2018 14:00:00 26,4 4,7 11 6 ESE 1027,0 35
19.04.2018 13:00:00 24,8 6,0 7 4 E 1027,5 35
19.04.2018 12:00:00 23,3 7,2 11 6 E 1028,3 35
19.04.2018 11:00:00 21,7 8,3 7 4 ESE 1028,6 30
19.04.2018 10:00:00 16,4 9,0 7 4 NNW 1028,9 30
19.04.2018 09:00:00 14,7 8,1 4 2 SSE 1029,2 30
19.04.2018 08:00:00 11,6 8,1 7 4 N 1029,4 30
19.04.2018 07:00:00 9,7 8,0 4 2 S 1029,4 20
19.04.2018 06:00:00 9,1 7,7 4 2 SSW 1029,5 -
19.04.2018 05:00:00 10,0 8,2 4 2 N 1029,6 -
19.04.2018 04:00:00 10,5 8,3 4 2 N 1029,6 -
19.04.2018 03:00:00 11,5 8,4 4 2 SW 1029,7 -
19.04.2018 02:00:00 11,8 8,4 4 2 N 1029,7 -
19.04.2018 01:00:00 12,8 8,2 4 2 N 1029,7 -
19.04.2018 00:00:00 14,2 7,9 4 2 SW 1029,6 -
18.04.2018 23:00:00 17,4 8,0 7 4 S 1029,5 -
18.04.2018 22:00:00 18,8 7,5 4 2 N 1029,1 -
18.04.2018 21:00:00 21,6 5,5 7 4 N 1028,8 30
18.04.2018 20:00:00 24,6 4,2 7 4 N 1028,5 30
18.04.2018 19:00:00 25,5 2,0 7 4 SE 1028,7 30
18.04.2018 18:00:00 25,8 4,0 7 4 ESE 1028,9 35
18.04.2018 17:00:00 25,9 3,7 11 6 E 1029,2 35
18.04.2018 16:00:00 26,1 5,1 7 4 SE 1029,7 35
18.04.2018 15:00:00 25,9 3,6 7 4 NE 1030,2 35
18.04.2018 14:00:00 24,2 6,1 4 2 ENE 1030,6 35
18.04.2018 13:00:00 22,9 7,9 4 2 SSW 1031,3 30
18.04.2018 12:00:00 19,6 8,7 4 2 N 1031,7 30
18.04.2018 11:00:00 16,5 8,4 4 2 WSW 1032,2 25
18.04.2018 10:00:00 13,6 7,3 4 2 NNW 1032,4 25
18.04.2018 09:00:00 11,3 6,8 4 2 NNW 1032,3 25
18.04.2018 08:00:00 9,5 6,4 4 2 N 1032,0 25
18.04.2018 07:00:00 7,9 6,3 4 2 SSW 1031,2 25
18.04.2018 06:00:00 8,3 6,7 7 4 SSW 1031,1 -
18.04.2018 05:00:00 8,9 6,8 4 2 SW 1030,6 -
18.04.2018 04:00:00 9,1 6,9 4 2 SSW 1030,2 -
18.04.2018 03:00:00 10,7 7,4 7 4 SW 1030,0 -
18.04.2018 02:00:00 10,9 7,5 4 2 SW 1029,7 -
18.04.2018 01:00:00 12,0 7,5 7 4 N 1029,3 -
18.04.2018 00:00:00 13,1 7,2 7 4 SW 1028,6 -
17.04.2018 23:00:00 14,1 7,1 4 2 WSW 1028,1 -
17.04.2018 22:00:00 16,4 7,4 7 4 SW 1027,5 -
17.04.2018 21:00:00 18,4 5,0 4 2 ESE 1026,6 20
17.04.2018 20:00:00 21,7 4,9 7 4 NNW 1025,7 25
17.04.2018 19:00:00 22,0 4,5 7 4 NW 1025,1 25
17.04.2018 18:00:00 22,0 5,0 7 4 NE 1025,0 25
17.04.2018 17:00:00 22,5 5,6 7 4 SSW 1024,9 25
17.04.2018 16:00:00 21,2 5,7 7 4 NW 1024,9 25
17.04.2018 15:00:00 20,3 6,8 7 4 NE 1025,3 25
17.04.2018 14:00:00 20,3 7,8 7 4 SW 1025,3 25
17.04.2018 13:00:00 18,3 7,1 7 4 W 1025,7 25
17.04.2018 12:00:00 16,5 7,3 4 2 WNW 1026,1 25
17.04.2018 11:00:00 14,0 6,7 4 2 NW 1026,4 25
17.04.2018 10:00:00 11,8 6,8 4 2 NNW 1026,1 25
17.04.2018 09:00:00 9,1 5,8 4 2 WNW 1026,3 25
17.04.2018 08:00:00 7,6 6,4 4 2 WSW 1025,2 20
17.04.2018 07:00:00 6,3 5,4 4 2 W 1024,6 20
17.04.2018 06:00:00 6,5 5,2 4 2 N 1024,1 -
17.04.2018 05:00:00 7,2 6,1 4 2 W 1023,5 -
17.04.2018 04:00:00 7,8 6,4 0 0 N 1023,1 -

tt = Température de l'air
td = dewpoint
ff = Vitesse du vent
dd = Direction du vent
ppp = reduced air pressure
vv = visibility

stations d'obs. à proximité